| time (UTC) | temp F | wind direction | speed knots | gust knots | rain 1hr in | rain 24hr in | rain mn in | humidity % | barometer mb |
| 20260505171501 | 70 | 170 | 2.6 | 7.0 | 0.00 | 0.00 | 0.00 | 50 | 1009.5 |
| 20260505170004 | 69 | 196 | 2.6 | 8.7 | 0.00 | 0.00 | 0.00 | 52 | 1009.3 |
| 20260505164503 | 68 | 128 | 2.6 | 7.8 | 0.00 | 0.00 | 0.00 | 51 | 1009.8 |
| 20260505161501 | 68 | 286 | 1.7 | 4.3 | 0.00 | 0.00 | 0.00 | 50 | 1009.8 |
| 20260505153003 | 66 | 192 | 1.7 | 5.2 | 0.00 | 0.00 | 0.00 | 58 | 1010.2 |
| 20260505151503 | 66 | 203 | 1.7 | 4.3 | 0.00 | 0.00 | 0.00 | 56 | 1010.3 |
| 20260505124501 | 55 | 16 | 1.7 | 2.6 | 0.00 | 0.00 | 0.00 | 75 | 1009.1 |
| 20260505123003 | 53 | 351 | 0.0 | 2.6 | 0.00 | 0.00 | 0.00 | 75 | 1008.9 |
| 20260505121503 | 52 | 348 | 0.0 | 0.0 | 0.00 | 0.00 | 0.00 | 78 | 1009.2 |
| 20260505120003 | 51 | 340 | 0.0 | 1.7 | 0.00 | 0.00 | 0.00 | 77 | 1009.0 |
| 20260505114502 | 52 | 320 | 0.0 | 0.0 | 0.00 | 0.00 | 0.00 | 74 | 1008.9 |
| 20260505111503 | 53 | 219 | 0.0 | 1.7 | 0.00 | 0.00 | 0.00 | 69 | 1008.5 |
| 20260505101500 | 57 | 324 | 0.9 | 3.5 | 0.00 | 0.00 | 0.00 | 58 | 1008.2 |
| 20260505100003 | 57 | 346 | 0.9 | 2.6 | 0.00 | 0.00 | 0.00 | 59 | 1008.2 |
| 20260505094501 | 57 | 304 | 0.9 | 2.6 | 0.00 | 0.00 | 0.00 | 60 | 1008.3 |
| 20260505093003 | 57 | 323 | 0.0 | 4.3 | 0.00 | 0.00 | 0.00 | 60 | 1008.3 |
| 20260505091502 | 57 | 288 | 0.0 | 1.7 | 0.00 | 0.00 | 0.00 | 60 | 1008.4 |
| 20260505090004 | 57 | 250 | 0.9 | 2.6 | 0.00 | 0.00 | 0.00 | 60 | 1008.3 |
| 20260505084500 | 58 | 300 | 0.0 | 1.7 | 0.00 | 0.00 | 0.00 | 59 | 1008.4 |
| 20260505083000 | 58 | 313 | 0.9 | 3.5 | 0.00 | 0.00 | 0.00 | 59 | 1008.4 |
| 20260505081500 | 58 | 178 | 0.0 | 4.3 | 0.00 | 0.00 | 0.00 | 60 | 1008.4 |
| 20260505080000 | 57 | 302 | 0.9 | 1.7 | 0.00 | 0.00 | 0.00 | 62 | 1008.4 |
| 20260505074500 | 57 | 355 | 0.9 | 2.6 | 0.00 | 0.00 | 0.00 | 62 | 1008.3 |
| 20260505073001 | 57 | 288 | 0.0 | 3.5 | 0.00 | 0.00 | 0.00 | 62 | 1008.3 |
| 20260505071459 | 57 | 215 | 0.0 | 0.0 | 0.00 | 0.00 | 0.00 | 61 | 1008.4 |
| 20260505070003 | 57 | 52 | 0.0 | 1.7 | 0.00 | 0.00 | 0.00 | 61 | 1008.2 |
| 20260505064500 | 58 | 155 | 1.7 | 4.3 | 0.00 | 0.00 | 0.00 | 60 | 1008.3 |
| 20260505054500 | 59 | 169 | 1.7 | 3.5 | 0.00 | 0.00 | 0.00 | 59 | 1008.5 |
| 20260505053001 | 59 | 176 | 1.7 | 2.6 | 0.00 | 0.00 | 0.00 | 59 | 1008.8 |
| 20260505051500 | 59 | 175 | 1.7 | 2.6 | 0.00 | 0.00 | 0.00 | 59 | 1008.8 |
| 20260505041503 | 60 | 198 | 2.6 | 3.5 | 0.00 | 0.00 | 0.00 | 59 | 1008.8 |
| 20260505040005 | 60 | 171 | 1.7 | 3.5 | 0.00 | 0.00 | 0.00 | 59 | 1008.7 |
| 20260505034501 | 60 | 169 | 1.7 | 2.6 | 0.00 | 0.00 | 0.00 | 58 | 1008.8 |
| 20260505033001 | 60 | 174 | 0.9 | 2.6 | 0.00 | 0.00 | 0.00 | 59 | 1008.9 |
| 20260505031501 | 60 | 180 | 0.9 | 2.6 | 0.00 | 0.00 | 0.00 | 58 | 1008.9 |
| 20260505030001 | 60 | 167 | 0.0 | 0.9 | 0.00 | 0.00 | 0.00 | 59 | 1008.8 |
| 20260505024501 | 60 | 146 | 0.0 | 1.7 | 0.00 | 0.00 | 0.00 | 60 | 1008.9 |
| 20260505023001 | 60 | 146 | 0.0 | 1.7 | 0.00 | 0.00 | 0.00 | 61 | 1008.8 |
| 20260505021500 | 61 | 144 | 0.0 | 1.7 | 0.00 | 0.00 | 0.00 | 60 | 1008.8 |
| 20260505020005 | 61 | 172 | 0.9 | 1.7 | 0.00 | 0.00 | 0.00 | 60 | 1008.8 |
| 20260505014501 | 62 | 181 | 0.9 | 1.7 | 0.00 | 0.00 | 0.00 | 59 | 1008.4 |
| 20260505013000 | 62 | 181 | 0.0 | 1.7 | 0.00 | 0.00 | 0.00 | 59 | 1008.4 |
| 20260505011500 | 62 | 181 | 0.9 | 1.7 | 0.00 | 0.00 | 0.00 | 58 | 1008.2 |
| 20260505010005 | 63 | 180 | 0.0 | 1.7 | 0.00 | 0.00 | 0.00 | 59 | 1008.2 |
| 20260505003000 | 64 | 180 | 0.9 | 1.7 | 0.00 | 0.00 | 0.00 | 56 | 1007.8 |
| 20260505001502 | 65 | 180 | 0.0 | 0.0 | 0.00 | 0.00 | 0.00 | 53 | 1007.8 |
| 20260505000000 | 66 | 180 | 0.0 | 0.0 | 0.00 | 0.00 | 0.00 | 51 | 1007.8 |
| 20260504234500 | 67 | 180 | 0.0 | 0.0 | 0.00 | 0.00 | 0.00 | 50 | 1007.7 |
| 20260504232959 | 67 | 180 | 0.0 | 0.0 | 0.00 | 0.00 | 0.00 | 49 | 1007.7 |
| 20260504231500 | 67 | 180 | 0.9 | 2.6 | 0.00 | 0.00 | 0.00 | 49 | 1007.7 |
| 20260504230000 | 67 | 173 | 0.9 | 1.7 | 0.00 | 0.00 | 0.00 | 49 | 1007.7 |
| 20260504224459 | 68 | 173 | 1.7 | 2.6 | 0.00 | 0.00 | 0.00 | 48 | 1007.8 |
| 20260504223000 | 68 | 204 | 1.7 | 3.5 | 0.00 | 0.00 | 0.00 | 47 | 1007.7 |
| 20260504221500 | 68 | 175 | 0.0 | 1.7 | 0.00 | 0.00 | 0.00 | 46 | 1007.7 |
| 20260504220003 | 68 | 187 | 0.9 | 2.6 | 0.00 | 0.00 | 0.00 | 47 | 1007.7 |
| 20260504214500 | 68 | 173 | 0.0 | 1.7 | 0.00 | 0.00 | 0.00 | 48 | 1007.8 |
| 20260504213002 | 68 | 205 | 0.9 | 2.6 | 0.00 | 0.00 | 0.00 | 52 | 1007.8 |
| 20260504210003 | 69 | 202 | 0.9 | 2.6 | 0.00 | 0.00 | 0.00 | 51 | 1007.8 |
| 20260504203003 | 68 | 191 | 0.9 | 2.6 | 0.00 | 0.00 | 0.00 | 55 | 1008.0 |
| 20260504201502 | 68 | 185 | 0.9 | 2.6 | 0.00 | 0.00 | 0.00 | 54 | 1008.0 |
| 20260504191501 | 70 | 167 | 0.9 | 2.6 | 0.00 | 0.00 | 0.00 | 49 | 1008.5 |
| 20260504190002 | 70 | 154 | 1.7 | 4.3 | 0.00 | 0.00 | 0.00 | 48 | 1008.8 |
| 20260504184500 | 70 | 173 | 1.7 | 3.5 | 0.00 | 0.00 | 0.00 | 49 | 1008.9 |
| 20260504182959 | 70 | 109 | 0.9 | 3.5 | 0.00 | 0.00 | 0.00 | 52 | 1009.0 |
| 20260504181500 | 69 | 67 | 0.9 | 2.6 | 0.00 | 0.00 | 0.00 | 52 | 1009.3 |
| 20260504175959 | 69 | 172 | 1.7 | 4.3 | 0.00 | 0.00 | 0.00 | 54 | 1009.6 |
| 20260504174500 | 70 | 192 | 0.9 | 1.7 | 0.00 | 0.00 | 0.00 | 50 | 1009.5 |